Weather History for KBIF - March, 2014

Change the Weather History Date:

Tuesday, March 4, 2014

  Actual Average Record
Temperature  
Mean Temperature 52 °F -  
Max Temperature 63 °F - - ()
Min Temperature 40 °F - - ()
Degree Days  
Heating Degree Days 14    
Growing Degree Days 2 (Base 50)    
Moisture  
Dew Point 30 °F    
Average Humidity 42    
Maximum Humidity 70    
Minimum Humidity 27    
Precipitation  
Precipitation 0.00 in - - ()
Sea Level Pressure  
Sea Level Pressure 29.94 in    
Wind  
Wind Speed 4 mph (South)    
Max Wind Speed 9 mph    
Max Gust Speed 14 mph    
Visibility 7 miles    
Events      
T = Trace of Precipitation, MM = Missing Value Source: NWS Daily Summary

Daily Weather History Graph

Daily Weather History Graph

Search for Another Location

Airport or City:

Trip Planner

Search our weather history database for the weather conditions in past years. The results will help you decide how hot, cold, wet, or windy it might be!

Date:

Astronomy

Mar. 04, 2014 Rise Set
Actual Time 6:29 AM MST 6:05 PM MST
Civil Twilight 6:04 AM MST 6:30 PM MST
Nautical Twilight 5:36 AM MST 6:58 PM MST
Astronomical Twilight 5:08 AM MST 7:26 PM MST
Moon 8:32 AM MST (3/4) 9:58 PM MST (3/4)
Length of Visible Light 12h 25m
Length of Day
11h 36m
Waxing Crescent, 15% of the Moon is Illuminated
Mar 4
Waxing Crescent
Mar 8
First Quarter
Mar 16
Full
Mar 23
Last Quarter
Mar 30
New

Hourly Weather History & Observations

Time (MST) Temp. Windchill Dew Point Humidity Pressure Visibility Wind Dir Wind Speed Gust Speed Precip Events Conditions
12:56 AM 48.2 °F - 30.2 °F 50% 30.00 in 7.0 mi South 3.5 mph - N/A   Clear
1:56 AM 46.4 °F - 30.2 °F 53% 29.99 in 7.0 mi South 2.3 mph - N/A   Clear
2:56 AM 43.9 °F 42.3 °F 31.5 °F 62% 29.97 in 7.0 mi East 3.5 mph - N/A   Clear
3:56 AM 44.6 °F - 30.2 °F 57% 29.96 in 7.0 mi East 2.3 mph - N/A   Clear
4:56 AM 44.2 °F - 30.7 °F 59% 29.99 in 7.0 mi East 2.3 mph - N/A   Clear
5:56 AM 43.9 °F - 30.6 °F 59% 30.01 in 7.0 mi Calm Calm - N/A   Clear
6:56 AM 40.6 °F - 31.6 °F 70% 30.03 in 7.0 mi NNW 2.3 mph - N/A   Scattered Clouds
7:56 AM 42.8 °F - 33.8 °F 70% 30.03 in 7.0 mi North 2.3 mph - N/A   Mostly Cloudy
8:56 AM 48.2 °F - 29.5 °F 48% 30.02 in 7.0 mi ESE 2.3 mph - N/A   Mostly Cloudy
9:55 AM 51.8 °F - 28.4 °F 41% 30.01 in 7.0 mi ESE 4.6 mph - N/A   Scattered Clouds
9:56 AM 52.3 °F - 28.4 °F 40% 30.01 in 11.0 mi SE 3.5 mph - N/A   Partly Cloudy
10:55 AM 55.4 °F - 28.4 °F 36% 30.02 in 7.0 mi South 4.6 mph - N/A   Overcast
10:56 AM 55.6 °F - 27.5 °F 34% 29.99 in 11.0 mi SW 2.3 mph - N/A   Partly Cloudy
11:56 AM 58.8 °F - 27.9 °F 31% 29.94 in 7.0 mi SE 2.3 mph - N/A   Haze
12:56 PM 62.6 °F - 28.4 °F 27% 29.89 in 5.0 mi SSE 6.9 mph 13.8 mph N/A   Haze
1:56 PM 62.6 °F - 30.2 °F 30% 29.87 in 5.0 mi South 5.8 mph - N/A   Haze
2:56 PM 63.3 °F - 29.3 °F 28% 29.85 in 12.0 mi WSW 9.2 mph - N/A   Mostly Cloudy
3:56 PM 63.0 °F - 29.3 °F 28% 29.84 in 7.0 mi SW 5.8 mph - N/A   Mostly Cloudy
4:56 PM 62.6 °F - 30.6 °F 30% 29.83 in 7.0 mi South 6.9 mph - N/A   Mostly Cloudy
5:56 PM 61.7 °F - 31.5 °F 32% 29.84 in 7.0 mi WSW 8.1 mph - N/A   Mostly Cloudy
6:56 PM 59.4 °F - 32.0 °F 36% 29.86 in 7.0 mi WSW 4.6 mph - N/A   Mostly Cloudy
7:56 PM 59.4 °F - 32.4 °F 36% 29.86 in 7.0 mi West 4.6 mph - N/A   Mostly Cloudy
8:56 PM 59.9 °F - 32.5 °F 36% 29.86 in 7.0 mi WSW 4.6 mph - N/A   Mostly Cloudy
9:56 PM 59.5 °F - 31.8 °F 35% 29.96 in 7.0 mi South 4.6 mph - N/A   Mostly Cloudy
10:56 PM 59.5 °F - 31.3 °F 34% 29.97 in 7.0 mi SW 3.5 mph - N/A   Mostly Cloudy
11:56 PM 59.0 °F - 32.0 °F 36% 29.84 in 7.0 mi SW 2.3 mph - N/A   Partly Cloudy